EHI
0 0 0 0 0 0 0 0 0 0 1 1 1 0 1 1 1 0 0 0 0 1 4 11 17 17 16 15 12 7 9 14 10 3 0 0 0 0 0 0 0 1 0
0 0 0 0 0 0 0 0 0 0 0 1 1 0 0 0 0 0 0 0 0 0 3 9 11 10 8 7 6 5 6 10 8 3 0 0 0 0 0 0 0 1 1
0 0 0 0 0 0 0 0 0 0 0 0 0 0 0 0 0 0 0 0 0 0 2 7 8 4 1 1 1 1 2 5 5 2 0 0 0 0 0 0 0 0 0
0 0 0 0 0 0 0 0 0 0 0 0 0 0 0 0 0 0 0 0 0 0 1 4 6 4 1 0 0 0 0 2 2 1 0 0 0 0 0 0 0 0 0
0 0 0 0 0 0 0 0 0 0 0 0 0 0 0 0 0 0 0 0 0 0 0 1 3 3 2 0 0 0 0 0 1 1 1 0 0 0 0 0 0 0 0
0 0 0 0 0 0 0 0 0 0 0 0 0 0 0 0 0 0 0 0 0 0 0 0 1 1 1 0 0 0 0 0 0 1 1 1 0 0 0 0 0 0 0
0 0 0 0 0 0 0 0 0 0 0 0 0 0 0 0 0 0 0 0 0 0 0 0 0 0 0 0 0 0 1 1 0 1 2 1 0 0 0 0 0 0 0
0 0 0 0 0 0 0 0 0 0 0 0 0 0 0 0 0 0 0 0 0 0 0 0 0 0 0 0 0 1 2 2 1 1 1 1 0 0 0 0 0 0 0
0 0 0 0 0 0 0 0 0 0 0 0 0 0 0 0 0 0 0 0 0 0 0 0 0 0 0 0 0 0 1 1 1 1 1 1 1 1 1 0 0 0 0
0 0 0 0 0 0 0 0 0 0 0 0 0 0 0 0 0 0 0 0 0 0 0 0 0 0 0 0 0 0 0 0 0 1 1 1 0 0 0 0 0 0 0
0 0 0 0 0 0 0 0 0 0 0 0 0 0 0 0 0 0 0 0 0 0 0 0 0 0 0 0 0 0 0 0 0 0 0 0 0 0 0 0 0 0 1
0 0 0 0 0 0 0 0 0 0 0 0 0 0 0 0 0 0 0 0 0 0 0 0 0 0 0 0 0 0 0 0 0 0 0 0 0 0 0 0 0 1 2
0 0 0 0 0 0 0 0 0 0 0 0 0 0 0 0 0 0 0 0 0 0 0 0 0 0 0 0 0 0 0 0 0 0 0 0 0 1 0 0 0 1 2
0 0 0 0 0 0 0 0 0 0 0 0 0 0 0 0 0 0 0 0 0 0 0 0 0 0 0 0 0 0 0 0 0 0 0 0 0 0 0 0 0 1 1
0 0 0 0 0 0 0 0 0 0 0 0 0 0 0 0 0 0 0 0 0 0 0 0 0 0 0 0 0 0 0 0 0 0 0 0 0 0 0 0 0 0 0
0 0 0 0 0 0 0 0 0 0 0 0 0 0 0 0 0 0 0 0 0 0 0 0 0 0 0 0 0 0 0 0 0 0 0 0 0 0 0 0 0 0 0
0 0 0 0 0 0 0 0 0 0 0 0 0 0 0 0 0 0 0 0 0 0 0 0 0 0 0 0 0 0 0 0 0 0 0 0 0 0 0 0 0 0 0
0 0 0 0 0 0 0 0 0 0 0 0 0 0 0 0 0 0 0 0 0 0 0 0 0 0 0 0 0 0 0 0 0 0 0 0 0 0 0 0 0 0 0
0 0 0 0 0 0 0 0 0 0 0 0 0 0 0 0 0 0 0 0 0 0 0 0 0 0 0 0 0 0 0 0 0 0 0 0 0 0 0 0 0 0 0
0 0 0 0 0 0 0 0 0 0 0 0 0 0 0 0 0 0 0 0 0 0 0 0 0 0 0 0 0 0 0 0 0 0 0 0 0 0 0 0 0 0 0
0 0 0 0 0 0 0 0 0 0 0 0 0 0 0 0 0 0 0 0 0 0 0 0 0 0 0 0 0 0 0 0 0 0 0 0 0 0 0 0 0 0 0
0 0 0 0 0 0 0 0 0 0 0 0 0 0 0 0 0 0 0 0 0 0 0 0 0 0 0 0 0 0 0 0 0 0 0 0 0 0 0 0 0 0 0
0 0 0 0 0 0 0 0 0 0 0 0 0 0 0 0 0 0 0 0 0 0 0 0 0 0 0 0 0 0 0 0 0 0 0 0 0 0 0 0 0 0 0
0 0 0 0 0 0 0 0 0 0 0 0 0 0 0 0 0 0 0 0 0 0 0 0 0 0 0 0 0 0 0 0 0 0 0 0 0 0 0 0 0 0 0
0 0 0 0 0 0 0 0 0 0 0 0 0 0 0 0 0 0 0 0 0 0 0 0 0 0 0 0 0 0 0 0 0 0 0 0 0 0 0 0 0 0 0
0 0 0 0 0 0 0 0 0 0 0 0 0 0 0 0 0 0 0 0 0 0 0 0 0 0 0 0 0 0 0 0 0 0 0 0 0 0 0 0 0 0 0
Wind_Speed
6 5 3 3 3 3 3 4 4 5 5 6 6 6 5 5 5 5 4 11 12 13 16 19 21 21 20 19 19 19 19 19 18 18 18 19 18 18 18 18 17 17 17
4 4 3 3 3 3 3 3 4 4 3 2 3 4 4 5 5 5 5 7 12 14 16 18 20 21 21 21 20 20 20 19 19 19 19 19 19 19 19 18 19 19 18
5 4 3 3 3 3 3 2 3 2 2 2 3 3 3 4 5 6 6 5 6 11 15 18 20 21 21 21 21 21 20 20 19 19 19 19 19 19 19 19 19 19 19
5 4 3 3 2 2 2 2 2 1 1 1 2 3 3 4 6 7 6 6 5 6 9 16 18 19 21 22 21 21 20 19 19 20 20 20 20 20 20 20 20 19 19
6 4 3 3 2 2 1 1 1 1 1 1 2 3 3 4 5 7 7 8 7 7 6 10 15 17 20 23 22 21 20 20 20 21 21 21 21 20 20 20 20 19 19
6 5 3 3 3 2 1 1 1 1 1 1 2 3 4 5 5 5 7 7 7 9 8 8 8 10 18 21 21 21 21 21 21 21 22 22 22 21 20 19 19 19 18
7 6 4 4 3 3 3 2 2 1 0 0 1 3 4 5 5 4 4 4 6 7 7 8 7 6 6 15 19 20 21 21 20 20 21 21 21 20 20 19 19 18 17
7 6 6 4 4 3 2 2 2 2 0 1 2 1 3 5 4 2 2 3 4 4 5 7 7 7 6 5 9 17 19 19 19 19 19 20 21 20 20 19 18 17 17
7 6 7 6 5 4 3 2 2 3 1 0 2 2 0 2 4 4 3 3 3 3 4 4 6 7 8 7 6 11 17 17 17 18 18 19 19 19 19 19 18 17 17
6 7 7 7 6 4 4 3 2 3 3 1 0 1 3 3 2 4 4 3 4 4 5 4 4 6 7 6 8 12 15 15 15 16 17 18 18 18 17 17 17 17 17
3 5 7 7 6 5 5 4 3 3 3 3 2 2 2 2 3 3 5 4 4 4 4 5 4 5 6 6 6 9 13 13 12 13 15 16 17 17 16 16 16 17 17
2 3 5 6 6 5 5 5 5 4 3 3 3 3 3 3 3 3 4 5 5 4 5 4 4 4 4 4 7 10 10 9 8 7 7 9 12 14 13 13 14 15 16
3 4 3 4 5 6 6 5 5 4 4 4 4 4 4 4 4 4 4 4 4 4 4 3 3 2 2 2 2 6 6 8 7 7 7 7 7 7 6 6 5 6 8
4 5 5 2 3 5 5 5 4 4 4 5 5 5 4 5 4 4 4 4 4 3 3 4 2 1 3 3 5 7 5 9 10 11 11 11 10 10 9 8 7 5 4
4 5 6 5 4 4 5 5 5 6 5 5 5 6 4 4 4 5 5 5 4 3 3 3 1 2 3 4 5 5 6 10 13 13 13 13 13 12 12 11 10 10 9
4 5 6 6 6 5 5 6 5 6 6 6 5 6 5 4 4 4 4 4 5 4 4 3 1 2 4 6 7 6 8 13 13 14 15 15 14 14 13 13 12 12 11
5 5 5 5 6 6 6 5 6 6 7 7 6 6 7 6 4 4 4 4 4 5 5 3 1 3 5 8 7 6 6 6 8 14 15 15 15 14 14 13 13 12 12
6 5 5 5 6 6 5 5 6 6 6 7 7 7 7 5 6 5 4 4 4 5 4 4 3 3 4 9 9 8 5 7 7 13 15 16 16 15 14 14 13 13 12
7 6 6 6 6 6 6 5 5 5 5 6 7 8 8 7 7 5 5 4 4 4 4 4 3 3 4 8 10 9 8 7 8 11 14 15 15 16 15 14 15 14 13
7 8 7 7 7 7 7 6 5 4 4 5 6 8 8 8 8 7 5 5 4 4 4 5 5 6 6 8 9 9 8 6 7 7 9 10 14 15 15 16 16 16 14
8 8 8 8 7 6 7 7 6 5 4 5 6 6 8 10 11 8 5 5 5 4 5 5 7 6 8 9 9 7 10 9 7 5 7 5 6 6 7 11 15 15 14
7 7 8 9 9 8 10 11 7 5 5 5 6 6 6 8 10 10 9 8 8 7 7 6 5 9 9 9 8 9 10 10 6 3 5 5 4 5 3 4 8 12 12
6 6 7 7 9 10 14 14 12 6 6 5 5 5 6 6 8 6 6 5 4 6 8 7 9 10 10 11 11 10 8 6 6 7 5 5 3 3 2 4 8 10 11
5 6 7 7 8 10 14 15 13 7 6 6 5 6 7 7 8 8 6 4 3 4 5 6 8 8 10 10 9 10 10 9 8 5 4 4 2 2 2 2 3 6 8
6 6 6 7 7 9 13 14 12 5 5 6 5 5 7 9 12 12 8 7 6 5 9 12 13 14 15 15 12 9 9 10 9 5 2 4 3 3 2 1 1 1 3
6 7 7 8 8 8 11 13 12 4 4 4 3 3 6 9 14 14 9 9 9 7 8 11 11 12 11 11 11 8 9 10 9 5 3 4 4 4 2 0 0 0 1
Wind_Direction
214 213 208 213 212 203 206 213 218 223 227 228 228 230 229 228 232 231 239 248 252 251 241 228 220 217 216 215 216 218 217 215 212 210 209 209 210 209 206 204 202 201 202
202 204 208 213 211 201 199 201 207 216 225 225 235 229 218 216 228 235 233 249 252 245 237 231 226 224 222 220 219 220 220 217 214 213 212 212 213 213 211 208 207 205 205
183 185 193 207 209 196 190 192 210 206 215 216 237 245 243 239 238 243 243 238 244 246 241 233 228 227 229 229 225 223 221 218 214 213 214 214 214 215 214 212 212 210 207
174 173 183 203 202 184 179 188 199 203 214 220 242 254 252 250 247 247 249 246 238 243 244 238 232 229 232 236 234 229 224 219 216 214 214 214 216 216 215 215 215 213 210
176 172 186 204 190 179 197 216 182 187 220 256 260 257 254 249 246 248 245 246 244 240 237 239 237 233 235 239 238 234 229 223 219 216 215 215 216 217 217 217 216 215 213
172 167 169 171 162 149 144 149 151 157 194 236 276 287 272 259 247 240 242 246 244 242 238 237 235 236 236 238 237 235 233 230 225 219 216 214 215 217 217 216 216 216 214
167 164 158 154 150 149 155 149 144 121 192 176 35 319 294 272 260 255 250 253 255 250 239 234 231 229 235 236 234 232 233 234 232 227 220 215 213 213 214 214 214 214 214
168 167 162 163 161 150 138 124 125 128 162 117 122 15 338 333 337 302 281 265 273 272 252 237 227 223 226 228 231 231 233 235 235 233 228 221 216 212 211 212 212 213 215
177 169 171 167 170 162 165 166 151 148 160 72 134 146 166 289 309 303 290 290 300 294 277 258 235 225 221 221 227 232 233 234 234 236 236 230 223 216 211 210 210 212 216
187 177 178 176 174 170 174 193 168 157 152 188 275 186 189 195 256 305 305 298 310 310 300 281 257 239 226 218 221 222 227 229 227 231 237 239 235 225 216 213 216 219 222
227 201 190 181 178 176 180 188 188 186 169 179 197 212 227 220 214 235 288 305 315 295 290 279 261 244 230 218 217 223 223 226 227 228 229 235 240 235 223 219 224 229 231
322 283 225 196 184 179 182 187 191 195 200 209 215 210 208 214 210 219 261 290 297 290 291 277 266 248 227 210 215 216 216 213 213 217 219 227 235 236 229 225 228 232 234
332 326 279 213 193 187 183 179 189 207 212 219 226 225 220 222 214 214 244 270 278 289 289 288 280 264 190 158 174 175 177 169 159 152 151 163 181 186 182 181 201 220 229
299 320 336 292 217 194 189 186 197 212 213 217 224 221 228 238 227 215 220 242 274 281 283 281 319 44 105 100 103 106 117 134 136 133 134 133 129 123 118 113 108 102 101
307 325 326 322 295 238 215 199 206 214 211 214 220 227 233 242 236 231 225 220 232 262 278 275 283 88 106 101 105 101 108 115 116 116 116 114 112 109 104 98 93 87 82
311 320 320 314 304 282 246 220 215 217 214 218 214 222 232 238 239 234 226 220 217 226 243 253 235 135 130 113 104 100 107 110 107 109 109 107 105 101 96 91 86 82 80
287 294 299 304 304 294 276 252 238 225 219 221 217 218 228 229 232 235 228 218 216 216 236 233 187 139 123 123 112 103 105 102 104 104 105 104 102 98 95 93 89 86 84
265 267 274 283 290 296 300 286 267 255 236 226 221 216 225 227 229 232 227 222 218 211 213 210 178 149 133 136 123 115 106 101 99 103 105 105 104 101 99 98 95 90 86
254 257 254 259 266 273 279 283 280 273 260 245 230 219 219 216 228 230 226 226 224 218 205 190 167 140 132 135 124 112 106 103 100 105 102 101 103 103 102 100 97 92 87
247 252 250 248 249 255 262 263 263 271 275 271 254 233 220 210 216 218 220 221 219 217 196 178 161 151 142 135 128 128 120 113 108 104 98 101 103 101 102 102 101 98 93
246 246 249 251 248 247 250 243 235 249 263 278 274 253 232 216 208 204 204 208 207 202 182 171 162 151 148 148 142 137 131 119 98 104 108 99 94 87 88 99 102 103 99
246 247 247 250 251 252 250 246 233 238 249 260 274 266 239 207 198 199 205 205 202 191 177 166 160 158 153 147 137 140 137 133 120 137 114 101 95 94 81 86 110 109 105
238 246 248 248 248 249 249 248 243 233 238 248 260 253 229 202 179 175 176 162 168 175 172 160 158 154 151 150 142 138 136 124 122 150 126 100 85 88 78 96 110 111 110
231 240 247 248 248 253 248 242 238 231 232 241 247 242 225 195 185 172 157 137 115 105 128 133 138 136 139 138 136 137 132 113 109 123 110 107 102 85 64 53 91 106 109
231 237 241 244 246 254 249 239 227 210 226 240 246 242 224 198 187 171 153 141 122 103 94 106 114 119 125 130 134 130 133 137 140 138 126 113 125 99 75 65 5 102 109
229 238 246 243 241 245 248 237 216 196 215 232 242 245 226 201 181 170 158 153 145 137 125 114 112 118 128 139 147 148 150 150 143 140 166 124 140 129 112 261 197 83 45